Hourly Data Report for October 21, 2015

All times are specified in Local Standard Time (LST). Add 1 hour to adjust for Daylight Saving Time where and when it is observed.

HALL BEACH A
NUNAVUT

68°46'33.000" N
81°14'33.000" W
9.10 m
2402354
71293
YUX

Download Data

Hourly Data (October 2015)
Hourly Data Report for October 21, 2015
Temp Definition
°C
Dew Point Temp Definition
°C
Rel Hum Definition
%
Wind Dir Definition
10's deg

Wind Spd Definition
km/h
Visibility Definition
km
Stn Press Definition
kPa
Hmdx Definition


Wind Chill Definition


Weather Definition


TIME
00:00 Legend Double Dagger -6.9 -8.7 87 22 18 16.1 101.17   -14 LegendNANA
01:00 Legend Double Dagger -6.1 -8.7 82 23 30 16.1 101.09   -14 LegendNANA
02:00 Legend Double Dagger -6.4 -9.0 82 24 26 16.1 101.04   -14 LegendNANA
03:00 Legend Double Dagger -6.9 -8.0 92 26 28 2.0 101.00   -15 Snow
04:00 Legend Double Dagger -6.9 -8.0 92 27 18 16.1 100.98   -14 Snow
05:00 Legend Double Dagger -7.0 -8.5 89 26 17 12.9 100.96   -13 Snow
06:00 Legend Double Dagger -7.3 -8.8 89 26 15 16.1 100.93   -13 Snow
07:00 Legend Double Dagger -7.5 -9.5 86 26 13 16.1 100.91   -13 LegendNANA
08:00 Legend Double Dagger -7.4 -8.8 90 26 11 16.1 100.89   -12 Snow
09:00 Legend Double Dagger -7.1 -8.2 92 27 13 6.4 100.88   -13 Snow
10:00 Legend Double Dagger -7.4 -8.5 92 26 11 16.1 100.90   -12 Snow
11:00 Legend Double Dagger -7.0 -8.0 93 27 15 16.1 100.91   -13 Snow
12:00 Legend Double Dagger -6.5 -7.7 91 30 21 16.1 100.94   -14 Snow
13:00 Legend Double Dagger -7.1 -8.7 88 31 22 16.1 101.00   -15 Snow
14:00 Legend Double Dagger -6.6 -8.4 87 33 28 16.1 101.08   -15 Snow
15:00 Legend Double Dagger -8.3 -9.7 89 31 34 16.1 101.20   -18 Snow
16:00 Legend Double Dagger -10.7 -12.0 90 31 28 16.1 101.28   -20 LegendNANA
17:00 Legend Double Dagger -10.1 -11.6 89 31 30 16.1 101.36   -20 LegendNANA
18:00 Legend Double Dagger -12.1 -13.8 87 31 37 9.7 101.42   -23 Fog
19:00 Legend Double Dagger -12.1 -14.0 86 31 35 16.1 101.45   -23 LegendNANA
20:00 Legend Double Dagger -12.7 -14.7 85 31 34 16.1 101.48   -24 LegendNANA
21:00 Legend Double Dagger -12.8 -14.8 86 31 32 16.1 101.53   -23 LegendNANA
22:00 Legend Double Dagger -13.2 -15.2 85 31 21 16.1 101.53   -22 LegendNANA
23:00 Legend Double Dagger -14.0 -15.9 86 28 18 16.1 101.56   -22 LegendNANA

Notes on Data Quality.

Legend

  • E = Estimated
  • M = Missing
  • NA = Not Available
  • ‡ = Partner data that is not subject to review by the National Climate Archives
Date modified: